Weather History for Osceola Municipal, IA

Change the Weather History Date:

Wednesday, December 5, 2012

  Actual Average (KLWD) Record (KLWD)
Temperature  
Mean Temperature 38 °F 30 °F  
Max Temperature 50 °F 38 °F 66 °F (2001)
Min Temperature 25 °F 22 °F 1 °F (2005)
Degree Days  
Heating Degree Days 28 35  
Month to date heating degree days 171  
Since 1 July heating degree days 1419  
Cooling Degree Days 0 0  
Month to date cooling degree days 0  
Year to date cooling degree days 946  
Moisture  
Dew Point 28 °F    
Average Humidity 64    
Maximum Humidity 83    
Minimum Humidity 46    
Precipitation  
Precipitation 0.00 in 0.05 in 1.37 in (1982)
Month to date precipitation 0.27  
Sea Level Pressure  
Sea Level Pressure 30.21 in    
Wind  
Wind Speed 9 mph (ESE)    
Max Wind Speed 17 mph    
Max Gust Speed 24 mph    
Visibility 10 miles    
Events      
T = Trace of Precipitation, MM = Missing Value Source: NWS Daily Summary

Daily Weather History Graph

Daily Weather History Graph

Search for Another Location

Airport:

Trip Planner

Search our weather history database for the weather conditions in past years. The results will help you decide how hot, cold, wet, or windy it might be!

Date:

Astronomy

Dec. 05, 2012 Rise Set
Actual Time 7:24 AM CST 4:46 PM CST
Civil Twilight 6:54 AM CST 5:17 PM CST
Nautical Twilight 6:19 AM CST 5:51 PM CST
Astronomical Twilight 5:46 AM CST 6:24 PM CST
Moon 11:39 PM CST (12/5) 11:46 AM CST (12/5)
Length of Visible Light 10h 23m
Length of Day
9h 21m
Waning Gibbous, 59% of the Moon is Illuminated
Dec 5
Waning Gibbous
Dec 6
Last Quarter
Dec 13
New
Dec 19
First Quarter
Dec 28
Full

Hourly Weather History & Observations

Time (CST) Temp. Windchill Dew Point Humidity Pressure Visibility Wind Dir Wind Speed Gust Speed Precip Events Conditions
12:15 AM 33.8 °F 27.7 °F 25.9 °F 73% 30.34 in 10.0 mi NNE 6.9 mph - N/A   Clear
12:35 AM 32.2 °F 25.8 °F 25.3 °F 76% 30.34 in 10.0 mi NNE 6.9 mph - N/A   Clear
12:55 AM 32.0 °F 26.4 °F 25.2 °F 76% 30.34 in 10.0 mi NE 5.8 mph - N/A   Clear
1:15 AM 31.5 °F 24.2 °F 24.8 °F 76% 30.35 in 10.0 mi NNE 8.1 mph - N/A   Clear
1:55 AM 32.0 °F 25.6 °F 24.8 °F 75% 30.36 in 10.0 mi NE 6.9 mph - N/A   Clear
2:15 AM 31.3 °F 24.7 °F 24.4 °F 76% 30.36 in 10.0 mi NE 6.9 mph - N/A   Clear
2:35 AM 29.7 °F 22.8 °F 23.5 °F 78% 30.36 in 10.0 mi NE 6.9 mph - N/A   Clear
2:55 AM 29.3 °F 24.3 °F 23.5 °F 79% 30.35 in 10.0 mi NE 4.6 mph - N/A   Clear
3:15 AM 28.8 °F - 23.2 °F 80% 30.36 in 10.0 mi Calm Calm - N/A   Clear
3:35 AM 29.5 °F 24.5 °F 23.2 °F 77% 30.35 in 10.0 mi ENE 4.6 mph - N/A   Clear
3:55 AM 27.0 °F 20.5 °F 21.9 °F 81% 30.34 in 10.0 mi NE 5.8 mph - N/A   Clear
4:15 AM 26.1 °F 19.4 °F 21.4 °F 82% 30.33 in 10.0 mi NE 5.8 mph - N/A   Clear
4:35 AM 27.5 °F 21.1 °F 22.1 °F 80% 30.33 in 10.0 mi ENE 5.8 mph - N/A   Clear
4:55 AM 27.5 °F 22.2 °F 21.9 °F 80% 30.33 in 10.0 mi ENE 4.6 mph - N/A   Clear
5:15 AM 27.1 °F 20.7 °F 21.7 °F 80% 30.33 in 10.0 mi ENE 5.8 mph - N/A   Clear
5:35 AM 26.6 °F 20.0 °F 21.2 °F 80% 30.33 in 10.0 mi East 5.8 mph - N/A   Clear
5:55 AM 25.9 °F 20.3 °F 21.2 °F 82% 30.33 in 10.0 mi ESE 4.6 mph - N/A   Clear
6:15 AM 26.1 °F 20.5 °F 21.0 °F 81% 30.33 in 10.0 mi East 4.6 mph - N/A   Clear
6:35 AM 25.7 °F 20.1 °F 21.2 °F 83% 30.33 in 10.0 mi East 4.6 mph - N/A   Clear
6:55 AM 26.2 °F 19.6 °F 21.2 °F 81% 30.33 in 10.0 mi East 5.8 mph - N/A   Clear
8:35 AM 30.7 °F 24.1 °F 24.1 °F 76% 30.33 in 10.0 mi ESE 6.9 mph - N/A   Clear
8:55 AM 32.0 °F 24.2 °F 24.6 °F 74% 30.32 in 10.0 mi ESE 9.2 mph - N/A   Clear
9:15 AM 33.3 °F 25.7 °F 24.8 °F 71% 30.33 in 10.0 mi ESE 9.2 mph - N/A   Clear
9:35 AM 35.4 °F 27.8 °F 25.7 °F 68% 30.33 in 10.0 mi ESE 10.4 mph - N/A   Clear
9:55 AM 37.4 °F 29.8 °F 25.9 °F 63% 30.33 in 10.0 mi ESE 11.5 mph - N/A   Clear
10:15 AM 39.0 °F 31.8 °F 26.2 °F 60% 30.33 in 10.0 mi SE 11.5 mph - N/A   Clear
10:35 AM 40.3 °F 33.4 °F 26.2 °F 57% 30.32 in 10.0 mi ESE 11.5 mph - N/A   Clear
10:55 AM 41.5 °F 35.9 °F 27.0 °F 56% 30.31 in 10.0 mi SE 9.2 mph - N/A   Clear
11:15 AM 42.3 °F 36.3 °F 27.5 °F 56% 30.29 in 10.0 mi SE 10.4 mph - N/A   Clear
11:35 AM 43.3 °F 37.2 °F 27.9 °F 54% 30.28 in 10.0 mi SE 11.5 mph - N/A   Clear
11:55 AM 44.8 °F 39.0 °F 28.9 °F 54% 30.26 in 10.0 mi SE 11.5 mph - N/A   Clear
12:15 PM 46.2 °F 40.5 °F 29.3 °F 52% 30.25 in 10.0 mi SE 12.7 mph - N/A   Clear
12:35 PM 47.7 °F - 29.3 °F 49% 30.23 in 10.0 mi SE 12.7 mph - N/A   Clear
12:55 PM 47.7 °F - 29.3 °F 49% 30.21 in 10.0 mi SE 12.7 mph - N/A   Clear
1:15 PM 48.4 °F - 29.7 °F 48% 30.21 in 10.0 mi SE 15.0 mph - N/A   Clear
1:35 PM 48.9 °F - 29.7 °F 47% 30.19 in 10.0 mi SE 13.8 mph - N/A   Clear
1:55 PM 50.0 °F - 29.7 °F 46% 30.18 in 10.0 mi SE 15.0 mph - N/A   Clear
2:15 PM 49.6 °F - 29.7 °F 46% 30.17 in 10.0 mi SE 13.8 mph - N/A   Clear
2:35 PM 49.5 °F - 29.8 °F 47% 30.16 in 10.0 mi SE 12.7 mph - N/A   Clear
2:55 PM 49.3 °F - 30.2 °F 48% 30.15 in 10.0 mi SE 12.7 mph - N/A   Clear
3:15 PM 49.1 °F - 30.6 °F 49% 30.15 in 10.0 mi SE 11.5 mph - N/A   Clear
3:35 PM 49.1 °F - 31.1 °F 50% 30.14 in 10.0 mi SE 10.4 mph - N/A   Clear
3:55 PM 48.7 °F - 31.1 °F 51% 30.13 in 10.0 mi ESE 10.4 mph - N/A   Clear
4:15 PM 48.4 °F - 31.3 °F 52% 30.13 in 10.0 mi SE 10.4 mph - N/A   Clear
4:35 PM 47.8 °F - 31.8 °F 54% 30.12 in 10.0 mi ESE 10.4 mph - N/A   Clear
4:55 PM 47.8 °F - 32.0 °F 54% 30.12 in 10.0 mi SE 11.5 mph - N/A   Clear
5:15 PM 47.5 °F - 32.0 °F 55% 30.12 in 10.0 mi SE 11.5 mph - N/A   Clear
5:35 PM 47.3 °F - 32.0 °F 55% 30.12 in 10.0 mi SE 11.5 mph - N/A   Clear
5:55 PM 46.6 °F - 32.0 °F 57% 30.11 in 10.0 mi SE 11.5 mph - N/A   Clear
6:15 PM 46.4 °F 40.7 °F 32.0 °F 57% 30.10 in 10.0 mi SE 12.7 mph - N/A   Clear
6:35 PM 45.9 °F 39.4 °F 32.4 °F 59% 30.09 in 10.0 mi SE 15.0 mph - N/A   Clear
6:55 PM 45.9 °F 39.4 °F 32.9 °F 61% 30.07 in 10.0 mi SE 15.0 mph 20.7 mph N/A   Clear
7:15 PM 45.5 °F 39.2 °F 32.9 °F 61% 30.08 in 10.0 mi SE 13.8 mph - N/A   Clear
7:35 PM 45.1 °F 37.9 °F 33.3 °F 63% 30.06 in 10.0 mi SE 17.3 mph 20.7 mph N/A   Clear
7:55 PM 44.8 °F 38.0 °F 33.6 °F 65% 30.05 in 10.0 mi SE 15.0 mph - N/A   Clear
8:15 PM 45.7 °F 38.8 °F 34.0 °F 64% 30.04 in 10.0 mi SE 16.1 mph 23.0 mph N/A   Clear
8:35 PM 46.2 °F 39.5 °F 34.2 °F 63% 30.03 in 10.0 mi SSE 16.1 mph 24.2 mph N/A   Clear
8:55 PM 46.4 °F 39.8 °F 34.2 °F 62% 30.03 in 10.0 mi SSE 16.1 mph 23.0 mph N/A   Clear
9:15 PM 45.9 °F 39.4 °F 34.2 °F 64% 30.03 in 10.0 mi SSE 15.0 mph 21.9 mph N/A   Clear
9:35 PM 45.5 °F 39.6 °F 34.0 °F 64% 30.03 in 10.0 mi SSE 12.7 mph - N/A   Clear
9:55 PM 45.1 °F 39.1 °F 34.2 °F 65% 30.03 in 10.0 mi SSE 12.7 mph - N/A   Clear
10:15 PM 45.5 °F 39.9 °F 34.3 °F 65% 30.02 in 10.0 mi SSE 11.5 mph - N/A   Clear
10:35 PM 45.7 °F 39.8 °F 34.3 °F 65% 30.01 in 10.0 mi SSE 12.7 mph - N/A   Clear
10:55 PM 46.2 °F 40.1 °F 34.3 °F 63% 30.00 in 10.0 mi SSE 13.8 mph - N/A   Clear
11:15 PM 46.0 °F 40.2 °F 34.7 °F 65% 30.00 in 10.0 mi SSE 12.7 mph - N/A   Clear
11:35 PM 46.4 °F 41.1 °F 34.7 °F 64% 29.99 in 10.0 mi SSE 11.5 mph - N/A   Clear
11:55 PM 46.9 °F - 34.5 °F 62% 29.99 in 10.0 mi SSE 11.5 mph - N/A   Clear